Regional Weather Roundup
Issued by NWS Glasgow, MT

Home | Current Version | Previous Version | Text Only | Print | Product List | Glossary On
Versions: 1 2 3 4 5 6 7 8 9 10 11 12 13 14 15 16 17 18 19 20 21 22 23 24 25 26 27 28
000
ASUS45 KGGW 170915
RWRGGW
HOURLY REGIONAL WEATHER ROUNDUP FOR NORTHEAST MONTANA
NATIONAL WEATHER SERVICE GLASGOW MONTANA
200 AM MST TUE JAN 17 2017

NOTE: "FAIR" INDICATES FEW OR NO CLOUDS BELOW 12,000 FEET WITH NO
SIGNIFICANT WEATHER AND/OR OBSTRUCTIONS TO VISISBILITY.

NORTHEAST MONTANA


CITY           SKY/WX    TMP DP  RH WIND       PRES   REMARKS
GLASGOW        CLOUDY    10   5  80 SE9       29.85F
PLENTYWOOD       N/A     13  10  88 SE7         N/A
WOLF POINT     CLOUDY    -5 -11  75 CALM      29.91F
JORDAN           N/A     16   9  74 CALM      29.88F
WINNETT          N/A     17  12  80 SW3         N/A
SIDNEY         CLOUDY     9   4  80 S15       29.95F WCI  -8
GLENDIVE       CLOUDY    13   6  74 S10       29.95F WCI   0

FORT PECK REPORTS


CITY           SKY/WX    TMP DP  RH WIND       PRES   REMARKS
FORT PECK        N/A     19  12  74 SE13G21     N/A
THE PINES        N/A     18  12  77 S3          N/A

SOUTHEAST MONTANA


CITY           SKY/WX    TMP DP  RH WIND       PRES   REMARKS
BILLINGS       CLOUDY    23   9  55 SW23      29.94F
MILES CITY     CLOUDY    10   3  73 S8        29.96F
BAKER          CLOUDY     5  -1  76 CALM      29.96F
LIVINGSTON     CLOUDY    32  14  47 W29G39    29.99F

CENTRAL MONTANA


CITY           SKY/WX    TMP DP  RH WIND       PRES   REMARKS
HAVRE          CLOUDY    32  22  66 SW23      29.79F
LEWISTOWN      CLOUDY    24  12  60 SE6       29.86F
GREAT FALLS    CLOUDY    32  17  54 SW24      29.87F
CUT BANK       CLOUDY    40  21  46 W35G52    29.74F
HELENA         CLOUDY     8   1  73 CALM      30.11S
BUTTE          CLOUDY    -1  -6  79 SE5       30.09F
BOZEMAN        CLOUDY     4  -2  76 CALM      30.10F

WESTERN MONTANA


CITY           SKY/WX    TMP DP  RH WIND       PRES   REMARKS
MISSOULA       PTCLDY    -2  -4  91 CALM      30.21F
KALISPELL      NOT AVBL

NORTH DAKOTA


CITY           SKY/WX    TMP DP  RH WIND       PRES   REMARKS
WILLISTON      CLOUDY     7   5  91 SW6       29.94F
DICKINSON      CLOUDY    15   6  67 SW7       29.94F
MINOT          CLOUDY    17  12  80 S8        29.94F
BISMARCK       CLOUDY     8   4  83 CALM      30.02F

SOUTHERN SASKATCHEWAN


CITY           SKY/WX    TMP DP  RH WIND       PRES   REMARKS
REGINA         MOCLDY    16  10  79 SE10      29.75F
ESTEVAN        PTCLDY    16  10  79 SW15      29.87F
SWIFT CURRENT  CLEAR     28  21  74 SW23      29.62F





USA.gov is the U.S. government's official web portal to all federal, state and local government web resources and services.